FW8528 Weather Reports


Display with metric or nautical units.
time (UTC)temp
F
wind
direction
speed
MPH
gust
MPH
rain 1hr
in
rain 24hr
in
rain mn
in
humidity
%
barometer
mb
20260901233340 67 238 0.0 0.0 0.00 0.00 0.00 73 1009.2
20260901232836 67 318 2.0 2.0 0.00 0.00 0.00 72 1009.2
20260901232331 69 60 4.0 5.0 0.00 0.00 0.00 69 1009.2
20260901231827 70 94 3.0 5.0 0.00 0.00 0.00 67 1009.2
20260901231323 70 268 0.0 1.0 0.00 0.00 0.00 66 1008.9
20260901230819 72 227 1.0 1.0 0.00 0.00 0.00 63 1008.9
20260901230319 72 29 4.0 7.0 0.00 0.00 0.00 62 1008.9
20260901225814 71 311 3.0 7.0 0.00 0.00 0.00 65 1008.9
20260901225314 71 311 1.0 1.0 0.00 0.00 0.00 65 1008.9
20260901224809 71 103 3.0 5.0 0.00 0.00 0.00 65 1008.9
20260901224305 71 64 1.0 1.0 0.00 0.00 0.00 66 1008.9
20260901223801 71 200 1.0 1.0 0.00 0.00 0.00 64 1008.6
20260901223256 72 351 1.0 2.0 0.00 0.00 0.00 62 1008.6
20260901222752 72 288 2.0 2.0 0.00 0.00 0.00 63 1008.9
20260901222248 73 268 1.0 1.0 0.00 0.00 0.00 60 1008.9
20260901221744 74 209 1.0 2.0 0.00 0.00 0.00 58 1008.6
20260901221239 73 298 1.0 2.0 0.00 0.00 0.00 59 1008.9
20260901220738 71 200 2.0 2.0 0.00 0.00 0.00 59 1008.6
20260901220233 74 342 7.0 9.0 0.00 0.00 0.00 57 1008.9
20260901215731 73 87 1.0 2.0 0.00 0.00 0.00 61 1008.9
20260901215226 71 309 1.0 1.0 0.00 0.00 0.00 62 1008.9
20260901214724 70 219 1.0 1.0 0.00 0.00 0.00 64 1008.6
20260901214218 70 305 2.0 2.0 0.00 0.00 0.00 64 1008.9
20260901213718 71 293 3.0 5.0 0.00 0.00 0.00 64 1008.9
20260901213213 72 106 1.0 1.0 0.00 0.00 0.00 64 1008.9
20260901212712 70 266 2.0 3.0 0.00 0.00 0.00 65 1008.9
20260901212208 70 241 1.0 2.0 0.00 0.00 0.00 66 1008.9
20260901211708 69 0 2.0 2.0 0.00 0.00 0.00 67 1008.9
20260901211205 69 10 2.0 2.0 0.00 0.00 0.00 69 1008.9
20260901210700 72 340 1.0 2.0 0.00 0.00 0.00 65 1008.9
20260901210156 73 302 1.0 2.0 0.00 0.00 0.00 63 1008.9
20260901205652 70 268 1.0 1.0 0.00 0.00 0.00 67 1008.9
20260901205152 70 323 4.0 5.0 0.00 0.00 0.00 67 1009.2
20260901204648 70 243 0.0 0.0 0.00 0.00 0.00 69 1009.2
20260901204143 70 118 2.0 5.0 0.00 0.00 0.00 67 1009.2
20260901203643 70 253 0.0 1.0 0.00 0.00 0.00 69 1009.2
20260901203138 69 294 1.0 2.0 0.00 0.00 0.00 70 1009.2
20260901202637 69 276 1.0 1.0 0.00 0.00 0.00 70 1009.2
20260901202133 69 57 3.0 5.0 0.00 0.00 0.00 72 1009.2
20260901201629 68 63 3.0 6.0 0.00 0.00 0.00 72 1009.2
20260901201128 69 338 1.0 1.0 0.00 0.00 0.00 71 1009.6
20260901200627 71 23 3.0 3.0 0.00 0.00 0.00 70 1009.2
20260901200123 70 144 2.0 3.0 0.00 0.00 0.00 70 1008.9
20260901195621 71 70 1.0 1.0 0.00 0.00 0.00 69 1009.6
20260901195120 70 355 3.0 5.0 0.00 0.00 0.00 70 1009.2
20260901194616 71 286 1.0 1.0 0.00 0.00 0.00 69 1009.2
20260901194111 71 22 1.0 2.0 0.00 0.00 0.00 70 1008.9
20260901193607 70 346 1.0 1.0 0.00 0.00 0.00 70 1009.2
20260901193101 69 293 1.0 1.0 0.00 0.00 0.00 71 1009.2
20260901192556 70 303 0.0 1.0 0.00 0.00 0.00 70 1009.2
20260901192051 69 246 0.0 0.0 0.00 0.00 0.00 70 1009.2
20260901191547 69 58 1.0 1.0 0.00 0.00 0.00 71 1009.2
20260901191044 70 255 2.0 3.0 0.00 0.00 0.00 70 1009.2
20260901190539 69 144 2.0 2.0 0.00 0.00 0.00 71 1009.6
20260901190038 68 270 1.0 1.0 0.00 0.00 0.00 74 1009.6
20260901185536 68 278 1.0 1.0 0.00 0.00 0.00 74 1009.6
20260901185036 68 244 1.0 2.0 0.00 0.00 0.00 73 1009.6
20260901184531 66 134 1.0 2.0 0.00 0.00 0.00 76 1009.6
20260901184027 67 46 1.0 1.0 0.00 0.00 0.00 77 1009.6
20260901183521 67 300 0.0 1.0 0.00 0.00 0.00 76 1009.6
20260901183016 66 300 0.0 1.0 0.00 0.00 0.00 77 1009.6
20260901182513 66 183 1.0 1.0 0.00 0.00 0.00 79 1009.2
20260901182007 65 2 2.0 3.0 0.00 0.00 0.00 78 1009.6
20260901181507 65 167 2.0 3.0 0.00 0.00 0.00 79 1009.6
20260901181006 65 288 3.0 5.0 0.00 0.00 0.00 79 1009.6
20260901180505 66 184 0.0 0.0 0.00 0.00 0.00 79 1009.6
20260901180004 64 241 0.0 0.0 0.00 0.00 0.00 81 1009.6
20260901175458 64 6 2.0 2.0 0.00 0.00 0.00 80 1009.6
20260901174953 65 238 0.0 1.0 0.00 0.00 0.00 80 1009.6
20260901174449 64 358 1.0 1.0 0.00 0.00 0.00 81 1009.6
20260901173944 64 298 3.0 3.0 0.00 0.00 0.00 81 1009.6
20260901173440 64 20 3.0 3.0 0.00 0.00 0.00 81 1009.6
20260901172936 64 215 0.0 1.0 0.00 0.00 0.00 83 1009.2
20260901172431 64 205 1.0 1.0 0.00 0.00 0.00 83 1009.6
20260901171929 64 270 0.0 1.0 0.00 0.00 0.00 83 1009.2
20260901171427 63 270 0.0 1.0 0.00 0.00 0.00 84 1009.6
20260901170927 64 241 2.0 2.0 0.00 0.00 0.00 84 1009.2
20260901170422 63 203 0.0 1.0 0.00 0.00 0.00 85 1009.2
20260901165921 63 150 1.0 2.0 0.00 0.00 0.00 87 1009.2
20260901165416 63 219 1.0 2.0 0.00 0.00 0.00 87 1008.9
20260901164912 62 168 1.0 1.0 0.00 0.00 0.00 89 1009.2
20260901164412 61 172 1.0 2.0 0.00 0.00 0.00 89 1009.2
20260901163907 62 253 0.0 0.0 0.00 0.00 0.00 89 1009.2
20260901163402 61 270 0.0 0.0 0.00 0.00 0.00 91 1009.2
20260901162857 60 242 0.0 0.0 0.00 0.00 0.00 92 1009.2
20260901162355 60 268 0.0 0.0 0.00 0.00 0.00 93 1009.2
20260901161850 59 213 0.0 0.0 0.00 0.00 0.00 95 1009.2
20260901161350 59 187 1.0 1.0 0.00 0.00 0.00 95 1009.2
20260901160845 58 206 0.0 1.0 0.00 0.00 0.00 96 1009.6
20260901160341 59 164 2.0 2.0 0.00 0.00 0.00 95 1009.2
20260901155840 59 190 2.0 2.0 0.00 0.00 0.00 96 1009.2
20260901155335 58 261 1.0 1.0 0.00 0.00 0.00 97 1009.6
20260901154832 58 252 0.0 0.0 0.00 0.00 0.00 98 1009.6
20260901154330 57 151 2.0 2.0 0.00 0.00 0.00 99 1009.6
20260901153825 57 202 2.0 2.0 0.00 0.00 0.00 99 1009.6
20260901153320 57 244 0.0 0.0 0.00 0.00 0.00 99 1009.6
20260901152819 57 227 0.0 0.0 0.00 0.00 0.00 99 1009.6
20260901152318 57 227 0.0 0.0 0.00 0.00 0.00 99 1009.6
20260901151814 57 168 1.0 2.0 0.00 0.00 0.00 99 1009.6
20260901151308 57 198 1.0 1.0 0.00 0.00 0.00 99 1009.6
20260901150808 56 225 0.0 0.0 0.00 0.00 0.00 99 1009.6
20260901150306 56 228 0.0 0.0 0.00 0.00 0.00 99 1009.2
20260901145803 56 228 0.0 0.0 0.00 0.00 0.00 99 1009.6
20260901145257 56 210 1.0 1.0 0.00 0.00 0.00 99 1009.6
20260901144753 56 243 0.0 0.0 0.00 0.00 0.00 99 1009.2
20260901144248 56 244 0.0 0.0 0.00 0.00 0.00 99 1009.2
20260901143744 56 244 0.0 0.0 0.00 0.00 0.00 99 1009.6
20260901143240 55 244 0.0 0.0 0.00 0.00 0.00 99 1009.6
20260901142736 55 245 0.0 0.0 0.00 0.00 0.00 99 1009.2
20260901142235 55 246 0.0 0.0 0.00 0.00 0.00 99 1009.2
20260901141731 55 245 0.0 0.0 0.00 0.00 0.00 99 1009.2
20260901141231 55 246 0.0 0.0 0.00 0.00 0.00 99 1009.6
20260901140730 55 236 0.0 0.0 0.00 0.00 0.00 99 1009.6
20260901140228 55 231 1.0 1.0 0.00 0.00 0.00 99 1009.6
20260901135723 55 233 0.0 0.0 0.00 0.00 0.00 99 1009.6
20260901135218 55 233 0.0 0.0 0.00 0.00 0.00 99 1009.2
20260901134714 55 226 0.0 0.0 0.00 0.00 0.00 99 1009.2
20260901134209 55 238 0.0 0.0 0.00 0.00 0.00 99 1009.2
20260901133708 55 238 0.0 0.0 0.00 0.00 0.00 99 1009.2
20260901133207 55 244 0.0 0.0 0.00 0.00 0.00 99 1009.2
20260901132706 54 243 0.0 0.0 0.00 0.00 0.00 99 1009.2
20260901132206 54 218 0.0 0.0 0.00 0.00 0.00 99 1009.6
20260901131701 54 231 0.0 0.0 0.00 0.00 0.00 99 1009.6
20260901131200 54 231 0.0 0.0 0.00 0.00 0.00 99 1009.2
20260901130656 54 233 0.0 0.0 0.00 0.00 0.00 99 1009.2
20260901130154 54 233 0.0 0.0 0.00 0.00 0.00 99 1009.2
20260901125653 54 239 0.0 0.0 0.00 0.00 0.00 99 1008.9
20260901125148 54 242 0.0 0.0 0.00 0.00 0.00 99 1009.6
20260901124643 54 213 1.0 2.0 0.00 0.00 0.00 99 1008.9
20260901124143 54 232 0.0 0.0 0.00 0.00 0.00 99 1009.2
20260901123637 54 220 0.0 1.0 0.00 0.00 0.00 99 1008.9
20260901123137 53 227 0.0 0.0 0.00 0.00 0.00 99 1008.9
20260901122636 53 229 0.0 0.0 0.00 0.00 0.00 99 1008.9
20260901122131 53 229 0.0 0.0 0.00 0.00 0.00 99 1008.6
20260901121626 53 231 0.0 0.0 0.00 0.00 0.00 99 1008.6
20260901121121 53 213 1.0 1.0 0.00 0.00 0.00 99 1008.9
20260901120621 52 224 0.0 0.0 0.00 0.00 0.00 99 1009.2
20260901120115 51 244 0.0 0.0 0.00 0.00 0.00 99 1008.9
20260901115610 51 215 1.0 1.0 0.00 0.00 0.00 99 1008.9
20260901115108 51 227 0.0 0.0 0.00 0.00 0.00 99 1008.9
20260901114604 51 227 0.0 0.0 0.00 0.00 0.00 99 1008.6
20260901114103 51 229 0.0 0.0 0.00 0.00 0.00 99 1008.9
20260901113602 51 229 0.0 0.0 0.00 0.00 0.00 99 1008.9
20260901113057 51 229 0.0 0.0 0.00 0.00 0.00 99 1008.9
20260901112557 51 231 0.0 0.0 0.00 0.00 0.00 99 1008.6
20260901112052 51 231 0.0 0.0 0.00 0.00 0.00 99 1008.6
20260901111550 51 231 0.0 0.0 0.00 0.00 0.00 99 1008.6
20260901111049 51 231 0.0 0.0 0.00 0.00 0.00 99 1008.6
20260901110545 51 231 0.0 0.0 0.00 0.00 0.00 99 1008.9
20260901110040 51 231 0.0 0.0 0.00 0.00 0.00 99 1008.9
20260901105537 51 231 0.0 0.0 0.00 0.00 0.00 99 1008.9
20260901105036 51 231 0.0 0.0 0.00 0.00 0.00 99 1008.9
20260901104533 51 231 0.0 0.0 0.00 0.00 0.00 99 1008.9
20260901104028 51 231 0.0 0.0 0.00 0.00 0.00 99 1008.9
20260901103522 52 231 0.0 0.0 0.00 0.00 0.00 99 1008.6
20260901103018 51 231 0.0 0.0 0.00 0.00 0.00 99 1008.9
20260901102518 52 231 0.0 0.0 0.00 0.00 0.00 99 1008.9
20260901102012 52 231 0.0 0.0 0.00 0.00 0.00 99 1008.9
20260901101509 52 231 0.0 0.0 0.00 0.00 0.00 99 1008.9
20260901101008 52 231 0.0 0.0 0.00 0.00 0.00 99 1008.9
20260901100502 52 231 0.0 0.0 0.00 0.00 0.00 99 1008.9
20260901100001 52 231 0.0 0.0 0.00 0.00 0.00 99 1008.9
20260901095500 52 231 0.0 0.0 0.00 0.00 0.00 99 1008.9
20260901094958 52 231 0.0 0.0 0.00 0.00 0.00 99 1008.9
20260901094453 52 231 0.0 0.0 0.00 0.00 0.00 99 1008.9
20260901093953 52 231 0.0 0.0 0.00 0.00 0.00 99 1008.9
20260901093447 52 231 0.0 0.0 0.00 0.00 0.00 99 1008.6
20260901092947 52 231 0.0 0.0 0.00 0.00 0.00 99 1008.9
20260901092443 52 231 0.0 0.0 0.00 0.00 0.00 99 1008.6
20260901091939 53 231 0.0 0.0 0.00 0.00 0.00 99 1008.9
20260901091434 53 231 0.0 0.0 0.00 0.00 0.00 99 1008.9
20260901090929 53 231 0.0 0.0 0.00 0.00 0.00 99 1008.9
20260901090428 53 231 0.0 0.0 0.00 0.00 0.00 99 1008.9
20260901085924 53 231 0.0 0.0 0.00 0.00 0.00 99 1008.9
20260901085420 53 231 0.0 0.0 0.00 0.00 0.00 99 1008.6
20260901084916 53 231 0.0 0.0 0.00 0.00 0.00 99 1008.9
20260901084412 53 231 0.0 0.0 0.00 0.00 0.00 99 1008.9
20260901083908 53 231 0.0 0.0 0.00 0.00 0.00 99 1008.9
20260901083402 53 231 0.0 0.0 0.00 0.00 0.00 98 1008.9
20260901082900 53 231 0.0 0.0 0.00 0.00 0.00 98 1008.9
20260901082355 53 231 0.0 0.0 0.00 0.00 0.00 98 1008.9
20260901081850 53 231 0.0 0.0 0.00 0.00 0.00 98 1009.2
20260901081346 53 231 0.0 0.0 0.00 0.00 0.00 98 1009.2
20260901080845 53 231 0.0 0.0 0.00 0.00 0.00 98 1008.9
20260901080340 53 231 0.0 0.0 0.00 0.00 0.00 98 1008.9
20260901075834 54 231 0.0 0.0 0.00 0.00 0.00 98 1008.9
20260901075329 53 231 0.0 0.0 0.00 0.00 0.00 98 1008.9
20260901074824 54 231 0.0 0.0 0.00 0.00 0.00 98 1008.9
20260901074319 54 230 0.0 0.0 0.00 0.00 0.00 98 1008.9
20260901073815 54 231 0.0 0.0 0.00 0.00 0.00 98 1008.6
20260901073310 54 231 0.0 0.0 0.00 0.00 0.00 98 1008.6
20260901072806 54 230 0.0 0.0 0.00 0.00 0.00 98 1008.6
20260901072309 54 231 0.0 0.0 0.00 0.00 0.00 98 1008.6
20260901071801 54 231 0.0 0.0 0.00 0.00 0.00 97 1008.6
20260901071259 54 231 0.0 0.0 0.00 0.00 0.00 97 1008.6
20260901070758 54 231 0.0 0.0 0.00 0.00 0.00 96 1008.6
20260901070254 55 231 0.0 0.0 0.00 0.00 0.00 97 1008.6
20260901065753 55 231 0.0 0.0 0.00 0.00 0.00 97 1008.6
20260901065248 55 231 0.0 0.0 0.00 0.00 0.00 97 1008.6
20260901064744 55 231 0.0 0.0 0.00 0.00 0.00 96 1008.6
20260901064241 55 231 0.0 0.0 0.00 0.00 0.00 96 1008.6
20260901063738 55 230 0.0 0.0 0.00 0.00 0.00 96 1008.6
20260901063233 55 231 0.0 0.0 0.00 0.00 0.00 96 1008.6
20260901062730 55 231 0.0 0.0 0.00 0.00 0.00 95 1008.9
20260901062225 55 230 0.0 0.0 0.00 0.00 0.00 95 1008.6
20260901061721 55 230 0.0 0.0 0.00 0.00 0.00 95 1008.9
20260901061220 55 231 0.0 0.0 0.00 0.00 0.00 94 1008.9
20260901060715 55 230 0.0 0.0 0.00 0.00 0.00 95 1008.9
20260901060211 56 230 0.0 0.0 0.00 0.00 0.00 93 1008.9
20260901055706 56 230 0.0 0.0 0.00 0.00 0.00 93 1008.9
20260901055203 56 231 0.0 0.0 0.00 0.00 0.00 93 1008.9
20260901054700 56 231 0.0 0.0 0.00 0.00 0.00 95 1009.2
20260901054155 55 230 0.0 0.0 0.00 0.00 0.00 94 1009.2
20260901053651 56 230 0.0 0.0 0.00 0.00 0.00 94 1009.2
20260901053147 56 230 0.0 0.0 0.00 0.00 0.00 94 1009.2
20260901052642 56 230 0.0 0.0 0.00 0.00 0.00 93 1009.2
20260901052138 56 231 0.0 0.0 0.00 0.00 0.00 93 1009.2
20260901051637 56 230 0.0 0.0 0.00 0.00 0.00 92 1009.2
20260901051136 56 230 0.0 0.0 0.00 0.00 0.00 92 1009.2
20260901050631 56 230 0.0 0.0 0.00 0.00 0.00 92 1009.2
20260901050126 57 231 0.0 0.0 0.00 0.00 0.00 91 1009.2
20260901045621 57 230 0.0 0.0 0.00 0.00 0.00 92 1009.2
20260901045116 57 230 0.0 0.0 0.00 0.00 0.00 91 1009.2
20260901044612 57 230 0.0 0.0 0.00 0.00 0.00 91 1008.9
20260901044108 57 230 0.0 0.0 0.00 0.00 0.00 90 1009.2
20260901043603 58 230 0.0 0.0 0.00 0.00 0.00 89 1008.9
20260901043058 58 231 0.0 0.0 0.00 0.00 0.00 89 1008.9
20260901042557 58 230 0.0 0.0 0.00 0.00 0.00 88 1009.2
20260901042053 58 231 0.0 0.0 0.00 0.00 0.00 87 1008.9
20260901041549 59 230 0.0 0.0 0.00 0.00 0.00 88 1009.2
20260901041048 59 231 0.0 0.0 0.00 0.00 0.00 87 1008.9
20260901040548 59 230 0.0 0.0 0.00 0.00 0.00 87 1008.9
20260901040043 59 230 0.0 0.0 0.00 0.00 0.00 87 1008.9
20260901035541 59 230 0.0 0.0 0.00 0.00 0.00 86 1008.9
20260901035040 60 230 0.0 0.0 0.00 0.00 0.00 86 1008.9
20260901034539 60 231 0.0 0.0 0.00 0.00 0.00 85 1008.6
20260901034034 60 230 0.0 0.0 0.00 0.00 0.00 84 1008.6
20260901033533 60 231 0.0 0.0 0.00 0.00 0.00 83 1008.6
20260901033033 61 231 0.0 0.0 0.00 0.00 0.00 83 1008.6
20260901032532 61 231 0.0 0.0 0.00 0.00 0.00 83 1008.2
20260901032027 62 231 0.0 0.0 0.00 0.00 0.00 82 1008.6
20260901031523 62 231 0.0 0.0 0.00 0.00 0.00 81 1008.6
20260901031018 62 231 0.0 0.0 0.00 0.00 0.00 82 1008.6
20260901030518 63 231 0.0 0.0 0.00 0.00 0.00 82 1007.9
20260901030013 63 231 0.0 0.0 0.00 0.00 0.00 79 1008.2
20260901025507 64 231 0.0 0.0 0.00 0.00 0.00 78 1008.2
20260901025006 64 231 0.0 0.0 0.00 0.00 0.00 75 1007.9
20260901024502 64 230 0.0 0.0 0.00 0.00 0.00 78 1008.2
20260901024000 65 230 0.0 0.0 0.00 0.00 0.00 79 1007.9
20260901023455 65 230 0.0 0.0 0.00 0.00 0.00 76 1007.9
20260901022949 66 230 0.0 0.0 0.00 0.00 0.00 76 1007.9
20260901022445 66 230 0.0 0.0 0.00 0.00 0.00 75 1008.2
20260901021940 67 230 0.0 0.0 0.00 0.00 0.00 76 1008.2
20260901021436 67 230 0.0 0.0 0.00 0.00 0.00 75 1008.2
20260901020931 68 230 0.0 0.0 0.00 0.00 0.00 74 1008.2
20260901020426 68 229 0.0 0.0 0.00 0.00 0.00 73 1008.2
20260901015925 69 229 0.0 1.0 0.00 0.00 0.00 73 1008.2
20260901015422 69 228 0.0 0.0 0.00 0.00 0.00 72 1008.2
20260901014921 70 241 0.0 0.0 0.00 0.00 0.00 68 1008.2
20260901014418 70 226 0.0 0.0 0.00 0.00 0.00 66 1008.2
20260901013913 71 238 0.0 0.0 0.00 0.00 0.00 62 1008.2
20260901013408 72 237 0.0 0.0 0.00 0.00 0.00 59 1008.2
20260901012904 73 235 0.0 0.0 0.00 0.00 0.00 62 1008.2
20260901012358 73 226 0.0 0.0 0.00 0.00 0.00 57 1008.2
20260901011854 74 244 0.0 0.0 0.00 0.00 0.00 62 1008.2
20260901011350 75 199 1.0 1.0 0.00 0.00 0.00 56 1008.2
20260901010848 77 241 0.0 1.0 0.00 0.00 0.00 56 1008.2
20260901010343 77 234 1.0 1.0 0.00 0.00 0.00 48 1008.2
20260901005842 76 239 0.0 0.0 0.00 0.00 0.00 51 1008.2
20260901005337 75 214 3.0 5.0 0.00 0.00 0.00 52 1008.2
20260901004832 76 227 0.0 1.0 0.00 0.00 0.00 50 1008.2
20260901004326 76 254 1.0 1.0 0.00 0.00 0.00 49 1008.6
20260901003826 77 184 2.0 2.0 0.00 0.00 0.00 51 1008.2
20260901003322 78 238 1.0 2.0 0.00 0.00 0.00 49 1008.2
20260901002820 78 211 2.0 2.0 0.00 0.00 0.00 48 1008.2
20260901002315 76 260 1.0 1.0 0.00 0.00 0.00 47 1008.6
20260901001815 76 233 0.0 0.0 0.00 0.00 0.00 49 1008.2
20260901001312 77 227 1.0 2.0 0.00 0.00 0.00 48 1008.2
20260901000805 77 128 1.0 2.0 0.00 0.00 0.00 47 1008.6
20260901000303 77 250 1.0 1.0 0.00 0.00 0.00 47 1008.2
20260831235759 78 251 0.0 0.0 0.00 0.00 0.00 47 1008.6
20260831235255 77 255 1.0 1.0 0.00 0.00 0.00 48 1008.6
20260831234756 78 261 5.0 6.0 0.00 0.00 0.00 47 1008.6
20260831234255 78 268 2.0 2.0 0.00 0.00 0.00 46 1008.6